Tracking 17141 objects as of 6-July-2015
HD Live streaming from Space Station

NAVSTAR 37 (USA 117)

Track NAVSTAR 37 (USA 117) now!
NAVSTAR 37 (USA 117) is classified as:


NORAD ID: 23833
Int'l Code: 1996-019A
Perigee: 20,707.0 km
Apogee: 20,748.1 km
Inclination: 54.0 °
Period: 739.9 minutes
Semi major axis: 27098 km
RCS: 4.1981 m2 (large)
Launch date: March 28, 1996
Source: United States (US)
PRN:
Your satellite tracking list
Your tracking list is empty





NASA's NSSDC Master Catalog

Two Line Element Set (TLE):
1 23833U 96019A   15184.79396645 -.00000037  00000-0  00000+0 0  9992
2 23833 054.0331 060.2793 0007584 278.8897 008.6326 01.94618608141023

Source of the keplerian elements: AFSPC

N2YO: 251